EHI
0 0 0 0 0 0 0 0 0 0 0 0 0 0 0 0 0 0 0 0 0 0 0 0 0 0 0 0 0 0 0 0 0 0 0 0 0 0 0 0 0 0 0 0
0 0 0 0 0 0 0 0 0 0 0 0 0 0 0 0 0 0 0 0 0 0 0 0 0 0 0 0 0 0 0 0 0 0 0 0 0 0 0 0 0 0 0 0
0 0 0 0 0 0 0 0 0 0 0 0 0 0 0 0 0 0 0 0 0 0 0 0 0 0 0 0 0 0 0 0 0 0 0 0 0 0 0 0 0 0 0 0
0 0 0 0 0 0 0 0 0 0 0 0 0 0 0 0 0 0 0 0 0 0 0 0 0 0 0 0 0 0 0 0 0 0 0 0 0 0 0 0 0 0 0 0
0 0 0 0 0 0 0 0 0 0 0 0 0 0 0 0 0 0 0 0 0 0 0 0 0 0 0 0 0 0 0 0 0 0 0 0 0 0 0 0 0 0 0 0
0 0 0 0 0 0 0 0 0 0 0 0 0 0 0 0 0 0 0 0 0 0 0 0 0 0 0 0 0 0 0 0 0 0 0 0 0 0 0 0 0 0 0 0
0 0 0 0 0 0 0 0 0 0 0 0 0 0 0 0 0 0 0 0 0 0 0 0 0 0 0 0 0 0 0 0 0 0 0 0 0 0 0 0 0 0 0 0
0 0 0 0 0 0 0 0 0 0 0 0 0 0 0 0 0 0 0 0 0 0 0 0 0 0 0 0 0 0 0 0 0 0 0 0 0 0 0 0 0 0 0 0
0 0 0 0 0 0 0 0 0 0 0 0 0 0 0 0 0 0 0 0 0 0 0 0 0 0 0 0 0 0 0 0 0 0 0 0 0 0 0 0 0 0 0 0
0 0 0 0 0 0 0 0 0 0 0 0 0 0 0 0 0 0 0 0 0 0 0 0 0 0 0 0 0 0 0 0 0 0 0 0 0 0 0 0 0 0 0 0
0 0 0 0 0 0 0 0 0 0 0 0 0 0 0 0 0 0 0 0 0 0 0 0 0 0 0 0 0 0 0 0 0 0 0 0 0 0 0 0 0 0 0 0
0 0 0 0 0 0 0 0 0 0 0 0 0 0 0 0 0 0 0 0 0 0 0 0 0 0 0 0 0 0 0 0 0 0 0 0 0 0 0 0 0 0 0 0
0 0 0 0 0 0 0 0 0 0 0 0 0 0 0 0 0 0 0 0 0 0 0 0 0 0 0 0 0 0 0 0 0 0 0 0 0 0 0 0 0 0 0 0
0 0 0 0 0 0 0 0 0 0 0 0 0 0 0 0 0 0 0 0 0 0 0 0 0 0 0 0 0 0 0 0 0 0 0 0 0 0 0 0 0 0 0 0
0 0 0 0 0 0 0 0 0 0 0 0 0 0 0 0 0 0 0 0 0 0 0 0 0 0 0 0 0 0 0 0 0 0 0 0 0 0 0 0 0 0 0 0
0 0 0 0 0 0 0 0 0 0 0 0 0 0 0 0 0 0 0 0 0 0 0 0 0 0 0 0 0 0 0 0 0 0 0 0 0 0 0 0 0 0 0 0
0 0 0 0 0 0 0 0 0 0 0 0 0 0 0 0 0 0 0 0 0 0 0 0 0 0 0 0 0 0 0 0 0 0 0 0 0 0 0 0 0 0 0 0
0 0 0 0 0 0 0 0 0 0 0 0 0 0 0 0 0 0 0 0 0 0 0 0 0 0 0 0 0 0 0 0 0 0 0 0 0 0 0 0 0 0 0 0
0 0 0 0 0 0 0 0 0 0 0 0 0 0 0 0 0 0 0 0 0 0 0 0 0 0 0 0 0 0 0 0 0 0 0 0 0 0 0 0 0 0 0 0
0 0 0 0 0 0 0 0 0 0 0 0 0 0 0 0 0 0 0 0 0 0 0 0 0 0 0 0 0 0 0 0 0 0 0 0 0 0 0 0 0 0 0 0
0 0 0 0 0 0 0 0 0 0 0 0 0 0 0 0 0 0 0 0 0 0 0 0 0 0 0 0 0 0 0 0 0 0 0 0 0 0 0 0 0 0 0 0
0 0 0 0 0 0 0 0 0 0 0 0 0 0 0 0 0 0 0 0 0 0 0 0 0 0 0 0 0 0 0 0 0 0 0 0 0 0 0 0 0 0 0 0
0 0 0 0 0 0 0 0 0 0 0 0 0 0 0 0 0 0 0 0 0 0 0 0 0 0 0 0 0 0 0 0 0 0 0 0 0 0 0 0 0 0 0 0
0 0 0 0 0 0 0 0 0 0 0 0 0 0 0 0 0 0 0 0 0 0 0 0 0 0 0 0 0 0 0 0 0 0 0 0 0 0 0 0 0 0 0 0
0 0 0 0 0 0 0 0 0 0 0 0 0 0 0 0 0 0 0 0 0 0 0 0 0 0 0 0 0 0 0 0 0 0 0 0 0 0 0 0 0 0 0 0
0 0 0 0 0 0 0 0 0 0 0 0 0 0 0 0 0 0 0 0 0 0 0 0 0 0 0 0 0 0 0 0 0 0 0 0 0 0 0 0 0 0 0 0
0 0 0 0 0 0 0 0 0 0 0 0 0 0 0 0 0 0 0 0 0 0 0 0 0 0 0 0 0 0 0 0 0 0 0 0 0 0 0 0 0 0 0 0
Wind_Speed
5 4 3 6 7 7 10 10 10 11 11 14 8 7 6 6 6 6 6 6 6 6 6 6 6 6 5 6 6 6 6 6 6 6 5 5 5 6 5 5 6 5 6 6
4 3 4 7 10 11 12 10 11 12 16 11 7 5 6 6 6 7 8 7 7 7 7 7 7 6 6 7 6 6 6 6 6 5 5 5 5 5 5 5 5 5 5 5
4 4 4 9 10 11 8 8 9 12 12 5 5 7 7 7 7 8 8 8 8 7 7 7 7 6 6 7 6 6 6 6 5 5 5 5 5 5 5 5 4 4 5 5
1 2 8 8 2 6 7 8 9 9 8 7 8 7 7 7 7 7 7 8 8 7 6 6 6 6 6 6 6 6 6 6 5 4 5 5 4 4 4 4 4 4 4 4
2 4 10 8 3 4 5 8 7 9 10 7 5 5 6 5 4 6 7 7 7 6 6 6 6 5 5 6 6 6 6 6 5 4 5 4 5 4 4 4 4 4 4 4
3 4 8 7 2 2 2 7 4 5 6 4 1 3 6 3 4 6 6 5 5 5 4 5 5 4 5 6 6 6 7 6 5 4 4 4 4 4 3 3 3 3 4 3
5 7 11 7 2 3 3 7 2 3 4 3 4 6 6 6 6 5 5 5 4 4 4 5 5 4 4 5 6 6 6 6 5 4 4 4 3 3 3 2 3 3 3 3
6 7 11 3 4 6 6 3 2 2 3 4 6 6 6 6 6 6 5 5 4 4 5 5 3 3 4 6 6 5 5 5 5 5 4 3 2 2 2 2 2 2 2 3
9 9 4 3 5 4 2 3 3 3 4 4 4 5 5 5 5 5 5 4 4 4 5 5 4 3 4 6 5 5 5 5 5 5 4 3 2 2 2 1 1 2 2 2
6 9 6 6 5 5 4 4 5 4 4 3 4 5 6 5 5 5 5 5 4 4 5 5 5 5 4 5 4 4 5 5 5 4 4 3 2 1 1 1 1 2 2 2
7 8 7 5 5 5 5 4 4 4 3 4 4 5 5 5 5 4 5 4 4 4 5 6 5 5 5 4 4 4 4 4 4 4 4 3 3 2 2 1 1 2 1 1
8 6 5 5 4 2 3 4 4 4 4 3 3 4 4 4 4 4 4 4 4 5 5 6 5 5 5 4 3 3 4 4 3 3 3 3 3 3 4 3 4 4 3 2
8 5 5 6 5 3 3 4 3 3 4 4 4 3 3 4 4 3 4 4 5 5 5 5 5 5 5 4 4 3 3 3 3 3 3 3 3 3 3 4 5 4 4 4
6 4 5 5 5 4 4 3 3 3 3 3 3 3 3 3 4 4 4 5 5 5 5 5 5 5 5 4 4 4 3 3 3 2 2 2 2 3 3 3 3 3 5 5
6 6 7 5 4 4 3 2 2 3 3 3 2 2 3 4 4 5 5 4 4 4 4 4 5 6 5 4 4 3 3 2 2 2 2 2 2 2 2 2 2 3 3 4
5 5 5 5 5 5 3 3 3 4 4 3 3 3 3 4 4 4 4 3 3 4 5 4 5 5 5 4 4 3 2 4 4 2 2 2 2 2 2 2 2 3 3 3
4 5 5 5 5 5 4 4 4 5 4 4 4 4 3 3 4 4 4 3 3 4 4 4 5 5 4 4 3 2 2 3 4 2 2 2 2 1 2 2 2 2 2 3
6 7 6 5 4 5 5 5 4 4 4 4 3 2 3 3 4 5 5 4 4 4 4 4 4 4 4 3 2 2 2 2 2 2 2 1 1 1 1 1 2 2 2 3
5 5 5 4 4 4 4 4 4 4 3 3 3 3 4 4 4 4 3 3 4 5 4 4 6 4 3 3 3 1 1 2 2 2 2 2 2 1 1 1 1 2 2 2
3 3 3 3 3 3 4 4 3 3 3 2 2 3 3 3 3 3 3 3 3 4 4 4 4 3 3 3 3 1 1 1 2 2 2 2 1 1 1 2 2 2 2 2
4 3 3 3 3 3 3 3 3 3 3 2 3 3 3 3 2 2 2 4 4 3 3 5 3 3 3 3 3 2 1 1 2 1 1 1 1 2 2 2 2 2 2 2
3 3 4 3 3 3 3 2 2 3 2 2 2 2 2 3 2 3 3 4 4 5 3 2 2 3 4 4 2 1 1 2 2 1 1 1 2 2 2 2 2 2 2 2
4 4 4 3 3 3 2 2 2 2 3 3 3 3 3 3 2 2 4 3 3 4 3 2 4 5 5 2 1 1 1 2 2 2 2 2 2 2 2 2 2 2 2 2
4 3 3 2 2 2 2 2 2 2 2 3 3 3 3 2 2 2 3 4 5 5 3 4 5 5 4 2 1 1 2 2 2 2 2 2 2 2 2 2 2 2 2 3
3 3 2 2 3 3 3 2 1 1 2 2 2 2 2 2 2 3 2 2 4 4 3 4 5 4 2 1 1 2 2 2 2 2 2 2 2 2 2 2 2 2 3 3
3 3 3 4 3 3 2 2 2 2 2 2 2 2 2 1 2 2 1 2 2 3 2 2 2 2 1 1 2 2 2 3 3 2 2 2 2 2 2 2 3 3 3 3
2 2 2 2 2 2 2 2 2 2 2 2 3 2 2 2 1 1 1 1 1 1 1 2 1 1 1 1 2 2 2 2 2 2 2 2 2 2 2 3 3 3 2 3
Wind_Direction
254 264 252 242 232 209 212 215 223 246 249 265 269 268 275 279 290 297 299 299 296 294 294 299 300 300 299 301 303 303 300 291 283 282 278 273 272 272 270 266 264 263 266 262
277 261 258 263 247 230 234 234 241 260 268 264 268 269 272 273 277 281 286 289 291 293 293 293 293 297 301 299 300 300 293 288 289 289 287 282 275 270 268 268 268 266 265 262
269 308 320 267 233 211 218 215 208 234 252 278 282 272 267 269 270 268 278 284 285 284 278 280 282 285 286 289 294 294 292 291 287 283 281 281 283 283 275 271 271 272 269 263
274 12 247 247 209 194 216 241 223 241 262 266 263 272 271 262 256 267 275 281 284 281 280 283 287 289 288 290 290 291 290 288 284 284 283 285 287 284 289 287 277 277 278 273
177 251 274 285 234 182 201 264 228 231 256 270 296 312 288 262 247 260 270 275 278 278 281 288 289 289 294 295 296 297 296 293 289 285 286 289 290 285 284 290 291 289 284 279
170 219 249 254 211 177 137 277 251 215 246 267 336 298 280 298 303 295 292 289 291 296 299 293 290 294 297 297 300 302 302 300 297 292 283 279 279 282 284 283 285 292 295 288
201 233 262 259 206 137 186 254 274 217 238 233 221 237 278 306 303 297 297 300 303 303 297 288 291 298 297 299 298 302 307 310 307 301 293 282 282 284 288 286 293 295 299 299
181 214 252 225 149 189 227 277 292 269 257 245 255 276 291 300 304 311 316 319 321 314 307 304 303 304 300 298 302 311 313 315 314 309 301 301 293 293 288 278 293 299 309 315
198 220 251 191 206 239 262 269 271 270 277 267 271 282 298 304 307 310 312 315 317 310 311 316 317 309 297 302 312 318 320 319 319 319 316 309 290 286 298 292 301 305 311 318
250 263 257 254 258 267 254 257 276 278 281 268 271 285 297 303 308 312 315 316 318 320 317 315 318 317 306 310 318 326 327 326 326 329 327 329 326 314 307 308 299 299 309 320
254 274 294 278 253 262 268 270 280 284 272 267 274 287 291 297 300 303 311 314 317 314 309 310 318 320 321 323 328 331 328 326 327 330 330 335 344 348 337 331 297 293 287 286
236 241 233 268 288 277 263 273 275 282 294 298 274 280 292 292 294 300 309 314 316 316 314 314 318 320 323 325 328 330 327 328 328 331 332 334 339 358 11 2 358 354 340 324
240 252 242 262 278 274 264 271 277 273 275 288 292 281 288 293 301 306 311 313 308 307 309 313 318 320 322 325 324 319 317 321 325 330 330 334 339 347 355 9 19 18 13 11
242 253 266 262 264 274 268 274 285 285 284 281 286 295 298 300 306 308 304 302 304 308 312 315 319 317 320 323 321 320 320 320 323 323 328 332 341 344 346 349 354 5 16 20
242 229 242 264 274 280 278 281 293 296 298 299 296 295 297 298 299 301 304 310 316 317 317 321 320 318 324 326 324 324 325 322 323 327 333 340 347 352 355 355 353 354 1 9
258 252 249 254 260 268 275 271 269 278 284 286 289 287 285 286 293 301 308 316 318 312 312 314 310 313 321 323 325 327 325 330 338 337 342 350 353 358 357 356 355 358 356 350
239 251 246 252 255 261 259 255 253 264 274 275 276 284 293 302 307 306 306 307 299 297 301 300 303 314 322 321 324 323 326 327 339 345 345 343 343 346 345 350 354 353 347 344
237 244 241 239 247 257 266 264 257 257 259 265 276 280 282 283 285 292 300 311 315 315 313 305 308 319 321 322 324 325 324 324 327 330 330 338 344 343 346 347 351 347 340 345
246 244 247 245 242 244 257 263 262 258 259 259 257 260 264 267 273 284 294 303 307 309 311 318 326 332 323 326 335 328 330 329 330 329 333 335 347 349 343 337 334 328 324 331
257 251 248 253 253 245 254 262 263 263 257 242 245 262 275 279 279 285 290 286 277 275 290 306 310 310 313 318 331 326 324 321 322 329 337 334 329 330 327 323 321 320 322 325
255 254 249 252 263 261 251 249 245 254 260 236 229 245 263 279 283 280 283 292 295 297 298 309 315 308 310 314 321 320 316 317 317 317 318 318 320 321 318 316 315 314 314 314
248 246 245 244 250 267 267 251 238 245 252 251 248 249 261 277 286 287 269 265 282 301 311 300 299 307 315 322 320 318 318 317 315 311 308 311 313 310 308 307 305 307 307 305
246 242 241 240 237 248 269 262 247 240 238 240 239 243 250 257 258 267 286 287 287 301 312 300 308 316 325 340 337 327 320 313 307 304 305 305 302 299 297 295 295 298 298 298
242 238 237 235 215 223 252 266 264 258 251 253 248 242 242 259 277 263 261 285 302 309 309 304 313 317 337 3 338 320 309 302 299 299 299 299 296 294 294 295 294 291 290 290
235 230 222 213 222 233 238 245 261 269 269 274 272 264 253 235 245 274 284 287 300 316 314 311 314 322 346 336 316 308 301 290 290 294 289 293 293 293 291 289 289 292 290 285
229 231 233 232 230 227 222 217 234 250 255 273 284 280 273 268 260 268 280 289 294 314 322 316 314 321 321 305 302 301 298 300 308 308 298 294 291 292 291 291 290 289 290 288
233 232 233 248 243 221 213 215 224 237 238 244 263 269 270 278 279 274 278 294 302 309 309 312 313 306 298 297 299 299 296 294 294 295 295 292 290 288 288 287 287 288 290 291